TimeCST,TemperatureF,Dew PointF,Humidity,Sea Level PressureIn,VisibilityMPH,Wind Direction,Wind SpeedMPH,Gust SpeedMPH,PrecipitationIn,Events,Conditions,WindDirDegrees,DateUTC
12:15 AM,8.6,7.2,94,30.41,10.0,Calm,Calm,-,N/A,,Clear,0,2013-01-15 06:15:00
12:35 AM,8.2,6.1,91,30.41,10.0,Calm,Calm,-,N/A,,Clear,0,2013-01-15 06:35:00
12:55 AM,7.7,5.7,92,30.41,10.0,Calm,Calm,-,N/A,,Clear,0,2013-01-15 06:55:00
1:15 AM,6.8,4.8,92,30.41,10.0,Calm,Calm,-,N/A,,Clear,0,2013-01-15 07:15:00
1:35 AM,7.5,5.5,92,30.42,10.0,Calm,Calm,-,N/A,,Clear,0,2013-01-15 07:35:00
1:55 AM,6.6,4.8,92,30.42,10.0,Calm,Calm,-,N/A,,Clear,0,2013-01-15 07:55:00
2:15 AM,6.6,4.5,91,30.42,10.0,Calm,Calm,-,N/A,,Clear,0,2013-01-15 08:15:00
2:35 AM,6.6,4.3,90,30.42,10.0,Calm,Calm,-,N/A,,Clear,0,2013-01-15 08:35:00
2:55 AM,5.9,3.9,92,30.41,10.0,Calm,Calm,-,N/A,,Clear,0,2013-01-15 08:55:00
3:15 AM,6.1,4.1,92,30.40,10.0,Calm,Calm,-,N/A,,Clear,0,2013-01-15 09:15:00
3:35 AM,6.4,4.3,91,30.40,10.0,Calm,Calm,-,N/A,,Clear,0,2013-01-15 09:35:00
3:55 AM,5.5,3.0,89,30.40,10.0,Calm,Calm,-,N/A,,Clear,0,2013-01-15 09:55:00
4:15 AM,5.7,3.2,89,30.39,10.0,Calm,Calm,-,N/A,,Clear,0,2013-01-15 10:15:00
4:35 AM,6.8,5.0,92,30.38,10.0,Calm,Calm,-,N/A,,Clear,0,2013-01-15 10:35:00
4:55 AM,6.4,3.9,89,30.38,10.0,Calm,Calm,-,N/A,,Clear,0,2013-01-15 10:55:00
5:15 AM,4.3,1.6,89,30.37,10.0,Calm,Calm,-,N/A,,Clear,0,2013-01-15 11:15:00
5:35 AM,4.6,2.3,90,30.38,10.0,Calm,Calm,-,N/A,,Clear,0,2013-01-15 11:35:00
5:55 AM,5.0,2.3,89,30.38,10.0,Calm,Calm,-,N/A,,Clear,0,2013-01-15 11:55:00
6:15 AM,4.8,2.1,89,30.37,10.0,Calm,Calm,-,N/A,,Clear,0,2013-01-15 12:15:00
6:35 AM,5.4,2.7,89,30.37,10.0,Calm,Calm,-,N/A,,Clear,0,2013-01-15 12:35:00
6:55 AM,5.7,3.4,90,30.38,10.0,Calm,Calm,-,N/A,,Clear,0,2013-01-15 12:55:00
7:15 AM,5.9,3.6,90,30.38,10.0,Calm,Calm,-,N/A,,Clear,0,2013-01-15 13:15:00
7:35 AM,6.1,3.6,89,30.39,10.0,Calm,Calm,-,N/A,,Clear,0,2013-01-15 13:35:00
7:55 AM,5.9,3.7,91,30.40,10.0,Calm,Calm,-,N/A,,Clear,0,2013-01-15 13:55:00
8:15 AM,7.5,5.0,89,30.40,10.0,Calm,Calm,-,N/A,,Clear,0,2013-01-15 14:15:00
8:35 AM,9.5,7.2,90,30.41,10.0,Calm,Calm,-,N/A,,Clear,0,2013-01-15 14:35:00
8:55 AM,11.8,9.5,90,30.41,10.0,Calm,Calm,-,N/A,,Clear,0,2013-01-15 14:55:00
9:15 AM,14.2,11.8,90,30.41,10.0,Calm,Calm,-,N/A,,Clear,0,2013-01-15 15:15:00
9:35 AM,18.3,14.2,84,30.40,10.0,East,3.5,-,N/A,,Clear,90,2013-01-15 15:35:00
9:55 AM,21.4,14.2,74,30.38,10.0,Calm,Calm,-,N/A,,Clear,0,2013-01-15 15:55:00
10:15 AM,23.5,13.5,65,30.36,10.0,ENE,4.6,-,N/A,,Clear,70,2013-01-15 16:15:00
10:35 AM,24.8,10.2,54,30.38,10.0,East,5.8,-,N/A,,Clear,100,2013-01-15 16:35:00
10:55 AM,23.9,11.5,59,30.38,10.0,SE,4.6,-,N/A,,Clear,130,2013-01-15 16:55:00
11:15 AM,24.8,11.8,58,30.36,10.0,ESE,3.5,-,N/A,,Clear,110,2013-01-15 17:15:00
11:35 AM,25.3,11.1,55,30.36,10.0,Calm,Calm,-,N/A,,Clear,0,2013-01-15 17:35:00
11:55 AM,25.5,11.8,56,30.34,10.0,SE,5.8,-,N/A,,Clear,140,2013-01-15 17:55:00
12:15 PM,25.2,12.6,59,30.33,10.0,Calm,Calm,-,N/A,,Clear,0,2013-01-15 18:15:00
12:35 PM,26.1,13.3,59,30.31,10.0,East,5.8,-,N/A,,Clear,90,2013-01-15 18:35:00
12:55 PM,26.4,13.5,58,30.31,10.0,SE,3.5,-,N/A,,Clear,130,2013-01-15 18:55:00
1:15 PM,26.6,14.0,59,30.31,10.0,SE,4.6,-,N/A,,Clear,140,2013-01-15 19:15:00
1:35 PM,27.3,12.7,54,30.30,10.0,ESE,4.6,-,N/A,,Clear,120,2013-01-15 19:35:00
1:55 PM,27.5,13.5,56,30.29,10.0,SE,4.6,-,N/A,,Clear,130,2013-01-15 19:55:00
2:15 PM,27.3,13.6,56,30.29,10.0,Calm,Calm,-,N/A,,Clear,0,2013-01-15 20:15:00
2:35 PM,27.5,14.2,57,30.29,10.0,Calm,Calm,-,N/A,,Clear,0,2013-01-15 20:35:00
2:55 PM,27.5,14.4,58,30.28,10.0,SSW,3.5,-,N/A,,Clear,200,2013-01-15 20:55:00
3:15 PM,27.3,13.8,57,30.29,10.0,South,3.5,-,N/A,,Clear,170,2013-01-15 21:15:00
3:35 PM,26.6,13.6,58,30.29,10.0,SSW,3.5,-,N/A,,Clear,210,2013-01-15 21:35:00
3:55 PM,26.1,14.4,61,30.28,10.0,SSW,3.5,-,N/A,,Clear,200,2013-01-15 21:55:00
4:15 PM,25.9,13.5,59,30.28,10.0,SSW,3.5,-,N/A,,Clear,200,2013-01-15 22:15:00
4:35 PM,25.5,13.1,59,30.28,10.0,SSW,3.5,-,N/A,,Clear,200,2013-01-15 22:35:00
4:55 PM,24.6,13.3,62,30.27,10.0,WSW,3.5,-,N/A,,Clear,250,2013-01-15 22:55:00
5:15 PM,23.4,13.8,67,30.27,10.0,Calm,Calm,-,N/A,,Clear,0,2013-01-15 23:15:00
5:35 PM,22.5,14.0,70,30.26,10.0,Calm,Calm,-,N/A,,Clear,0,2013-01-15 23:35:00
5:55 PM,20.3,13.6,75,30.25,10.0,Calm,Calm,-,N/A,,Clear,0,2013-01-15 23:55:00
6:15 PM,16.3,13.1,87,30.24,10.0,Calm,Calm,-,N/A,,Clear,0,2013-01-16 00:15:00
6:35 PM,17.4,14.5,88,30.23,10.0,Calm,Calm,-,N/A,,Clear,0,2013-01-16 00:35:00
6:55 PM,17.6,13.1,83,30.23,10.0,Calm,Calm,-,N/A,,Clear,0,2013-01-16 00:55:00
7:15 PM,15.8,12.9,88,30.22,10.0,Calm,Calm,-,N/A,,Clear,0,2013-01-16 01:15:00
7:35 PM,15.3,13.1,91,30.21,10.0,Calm,Calm,-,N/A,,Clear,0,2013-01-16 01:35:00
7:55 PM,14.0,11.3,89,30.20,10.0,Calm,Calm,-,N/A,,Clear,0,2013-01-16 01:55:00
8:15 PM,14.5,11.7,88,30.19,10.0,Calm,Calm,-,N/A,,Clear,0,2013-01-16 02:15:00
8:35 PM,14.5,11.8,89,30.18,10.0,Calm,Calm,-,N/A,,Clear,0,2013-01-16 02:35:00
8:55 PM,13.1,10.8,90,30.18,10.0,Calm,Calm,-,N/A,,Clear,0,2013-01-16 02:55:00
9:15 PM,12.2,9.7,90,30.17,10.0,Calm,Calm,-,N/A,,Clear,0,2013-01-16 03:15:00
9:35 PM,11.7,10.0,93,30.16,10.0,Calm,Calm,-,N/A,,Clear,0,2013-01-16 03:35:00
9:55 PM,10.4,8.4,92,30.16,10.0,Calm,Calm,-,N/A,,Clear,0,2013-01-16 03:55:00
10:15 PM,10.9,9.1,92,30.15,10.0,Calm,Calm,-,N/A,,Clear,0,2013-01-16 04:15:00
10:35 PM,11.1,9.0,91,30.16,10.0,Calm,Calm,-,N/A,,Clear,0,2013-01-16 04:35:00
10:55 PM,9.9,8.2,93,30.15,10.0,Calm,Calm,-,N/A,,Clear,0,2013-01-16 04:55:00
11:15 PM,9.1,7.2,92,30.14,10.0,Calm,Calm,-,N/A,,Clear,0,2013-01-16 05:15:00
11:35 PM,8.8,7.0,92,30.14,10.0,Calm,Calm,-,N/A,,Clear,0,2013-01-16 05:35:00